{"data":{"norad_id":65659,"epoch":"2026-09-19T08:15:08.139744Z","epoch_age_seconds":208681,"freshness":"STALE","line1":"1 65659U 25211H   26262.34384421  .00012227  00000+0  38027-3 0  9995","line2":"2 65659  97.2833 302.5534 0001049  95.1010 265.0352 15.33459881 56345","mean_motion":15.33459881,"eccentricity":0.0001049,"inclination_deg":97.2833,"raan_deg":302.5534,"arg_perigee_deg":95.101,"mean_anomaly_deg":265.0352,"bstar":0.00038027,"rev_number":5634,"period_min":93.905293372328,"perigee_km":464.781002044,"apogee_km":466.21679685571,"semimajor_km":6843.6358994499,"source":"CELESTRAK","updated_at":"2026-09-21T09:00:35.680499Z"}}